2024-168A

Last updated on Tue Oct 08 2024 00:02:04 GMT+0000 (Coordinated Universal Time)

1 61185U 24168A 24281.53058399 -.00000055 00000+0 00000+0 0 9990 2 61185 54.9271 323.6042 0079175 294.4543 64.7855 1.80096557 322
UTC large
Height (km)
Speed (km/s)
/
Latitude / Longitude
Inclination (degrees)
Orbital Period (minutes)
Azimuth
Elevation
Range (km)
Doppler Factor

Next 0 passes for location: London (51.5072 / 0.1276)

Sorry there are no passes over London.